[[{"header":{"parameterUnit":"m.s-1","parameterCategory":1,"la1":30.2991,"la2":30.254,"lo1":-89.0895,"lo2":-89.0444,"dy":0.0017,"dx":0.0017,"nx":28,"ny":28,"refTime":"2024-04-15T21:00:00:Z","depth":0,"parameterNumber":2,"parameterNumberName":"U-component_of_WINDS"},"data":[0,0,0,0,0,0,0,0,0,0,0,0,0,0,0,0,0,0,0,0,0,0,0,0,0,0,0,0,0,0,0,0,0,0,0,0,0,0,0,0,0,0,0,0,0,0,0,0,0,0,0,0,0,0,0,0,0,0,-3.3436,-3.3436,0,-3.3399,-3.3399,-3.3398,-3.3339,-3.3338,-3.3337,-3.3336,-3.3296,-3.3296,-3.3296,0,0,0,0,0,0,0,0,0,0,0,0,0,-3.3457,-3.3457,-3.3437,-3.3436,-3.3436,-3.3399,-3.3399,-3.3398,-3.3339,-3.3338,-3.3337,-3.3335,-3.3296,-3.3296,-3.3296,0,0,0,0,0,0,0,0,0,0,0,0,0,-3.3437,-3.3457,-3.3437,-3.3402,-3.3398,-3.3399,-3.3399,-3.3398,-3.3339,-3.3338,-3.3336,-3.3335,-3.3296,-3.3296,-3.3296,-3.3327,0,0,-3.3296,-3.3296,0,0,0,0,0,0,0,0,-3.3438,-3.3436,-3.3407,-3.3404,-3.34,-3.3372,-3.3391,-3.3374,-3.334,-3.3362,-3.3336,-3.3334,-3.3323,-3.332,-3.3317,-3.3326,-3.3324,-3.3296,-3.3296,-3.3296,-3.3296,0,0,0,0,0,0,0,-3.344,-3.3438,-3.3422,-3.3407,-3.3403,-3.3388,-3.3384,-3.3388,-3.3352,-3.336,-3.3355,-3.3352,-3.332,-3.3317,-3.3315,-3.3323,-3.3296,-3.3296,-3.3296,-3.3296,-3.3357,-3.3359,0,0,0,0,0,0,-3.3446,-3.3439,-3.3423,-3.342,-3.3416,-3.3389,-3.3384,-3.3383,-3.3351,-3.3345,-3.3353,-3.3349,-3.3318,-3.3315,-3.3314,-3.3348,-3.3296,-3.3295,-3.3295,-3.3356,-3.3358,-3.336,0,0,0,0,0,0,-3.3447,-3.3445,-3.3424,-3.3429,-3.3425,-3.3391,-3.339,-3.3383,-3.3379,-3.3346,-3.334,-3.3356,-3.3316,-3.3314,-3.3325,-3.3346,-3.3295,-3.3295,-3.3354,-3.3356,-3.3359,-3.3418,0,0,0,0,0,0,-3.3448,-3.3446,-3.3457,-3.3429,-3.3425,-3.3436,-3.3391,-3.3383,-3.3379,-3.3374,-3.3347,-3.3342,-3.3315,-3.3325,-3.3325,-3.3345,-3.3295,-3.3352,-3.3355,-3.3358,-3.3414,-3.3422,-3.3429,0,0,0,0,0,-3.3449,-3.3475,-3.3458,-3.3456,-3.3438,-3.3437,-3.3435,-3.3404,-3.3381,-3.3392,-3.3372,-3.3342,-3.3345,-3.3327,-3.3326,-3.3346,-3.335,-3.3354,-3.3358,-3.341,-3.342,-3.3429,0,0,0,0,0,0,-3.3505,-3.347,-3.3451,-3.3469,-3.3457,-3.3427,-3.344,-3.3416,-3.3409,-3.3403,-3.3366,-3.336,-3.3376,-3.3363,-3.3344,-3.3376,-3.3343,-3.3347,-3.3383,-3.3393,-3.34,-3.3402,-3.3295,0,0,0,0,0,-3.352,-3.3522,-3.3492,-3.351,-3.3505,-3.3474,-3.3473,-3.345,-3.3436,-3.343,-3.341,-3.3396,-3.3394,-3.3393,-3.3389,-3.3413,-3.3406,-3.3427,-3.3435,-3.3441,-3.3444,-3.3456,-3.3464,-3.3372,-3.3372,-3.3372,0,0,-3.3549,-3.3531,-3.3534,-3.3521,-3.3509,-3.3512,-3.347,-3.3475,-3.3476,-3.343,-3.3439,-3.3425,-3.3408,-3.3425,-3.3432,-3.3414,-3.3469,-3.3446,-3.3451,-3.345,-3.346,-3.3469,-3.3477,-3.3375,-3.3374,-3.3374,0,0,-3.3605,-3.3592,-3.3606,-3.3595,-3.3577,-3.3557,-3.3561,-3.3536,-3.3524,-3.3533,-3.3499,-3.3501,-3.3498,-3.3487,-3.3481,-3.3537,-3.3509,-3.3537,-3.3576,-3.3588,-3.3595,-3.3601,-3.362,-3.3627,-3.354,-3.354,-3.354,0,-3.3643,-3.3647,-3.3616,-3.3623,-3.3619,-3.3579,-3.3593,-3.3584,-3.3566,-3.3564,-3.3545,-3.3542,-3.3527,-3.3542,-3.3556,-3.3553,-3.3555,-3.3538,-3.3597,-3.3602,-3.3608,-3.3625,-3.3632,-3.3544,-3.3543,-3.3543,-3.3543,0,-3.3695,-3.3698,-3.3712,-3.3696,-3.3694,-3.3705,-3.3676,-3.3677,-3.3656,-3.3638,-3.3649,-3.3631,-3.3623,-3.3625,-3.3604,-3.3638,-3.3627,-3.3604,-3.3569,-3.362,-3.3636,-3.3643,-3.3548,-3.3547,-3.3546,-3.3545,0,0,-3.3781,-3.3751,-3.3756,-3.3749,-3.3728,-3.373,-3.374,-3.3733,-3.3735,-3.3725,-3.3732,-3.3732,-3.371,-3.3704,-3.3682,-3.3693,-3.3737,-3.3668,-3.3667,-3.368,-3.3772,-3.3789,-3.3797,-3.3721,-3.3722,-3.3723,-3.3773,0,-3.3831,-3.3845,-3.3819,-3.3839,-3.3842,-3.3806,-3.3815,-3.3804,-3.3788,-3.3788,-3.3771,-3.3771,-3.3743,-3.3739,-3.3749,-3.373,-3.3755,-3.3726,-3.3726,-3.3726,-3.3729,-3.3805,-3.3822,-3.387,-3.3779,-3.378,-3.3781,0,-3.3889,-3.3883,-3.3904,-3.3884,-3.3884,-3.3892,-3.3884,-3.3885,-3.3872,-3.386,-3.3855,-3.383,-3.3839,-3.3809,-3.382,-3.3801,-3.38,-3.3792,-3.3793,-3.3789,-3.3755,-3.3802,-3.3885,-3.3892,-3.3791,-3.379,-3.3789,0,-3.3948,-3.3946,-3.3958,-3.3953,-3.393,-3.3937,-3.3927,-3.3913,-3.3911,-3.3905,-3.3903,-3.3898,-3.3895,-3.3892,-3.3867,-3.3847,-3.3882,-3.3849,-3.3871,-3.3872,-3.3877,-3.3877,-3.3959,-3.3881,-3.3881,-3.3881,-3.3881,0,-3.4005,-3.4019,-3.3984,-3.3991,-3.4007,-3.3978,-3.3994,-3.3981,-3.3969,-3.3973,-3.3943,-3.3948,-3.3916,-3.3917,-3.3898,-3.391,-3.391,-3.39,-3.3894,-3.3901,-3.3902,-3.3898,-3.3893,-3.3883,-3.3882,-3.3882,-3.3881,0,-3.4071,-3.4049,-3.406,-3.4038,-3.4033,-3.4045,-3.4026,-3.4032,-3.4016,-3.4023,-3.4022,-3.3997,-3.3998,-3.3973,-3.3969,-3.3956,-3.3976,-3.3966,-3.398,-3.3976,-3.3999,-3.3997,-3.4079,-3.4089,-3.4007,-3.4008,-3.4008,0,-3.4108,-3.4118,-3.4097,-3.4099,-3.4091,-3.4093,-3.4091,-3.4065,-3.4064,-3.4052,-3.406,-3.4058,-3.4055,-3.4058,-3.4039,-3.4036,-3.4024,-3.4053,-3.4023,-3.403,-3.4022,-3.4021,-3.4022,-3.4059,-3.406,-3.406,-3.4061,0,-3.4174,-3.4163,-3.4162,-3.4158,-3.4157,-3.4152,-3.4145,-3.4148,-3.4119,-3.412,-3.4121,-3.4119,-3.4115,-3.4114,-3.4108,-3.4098,-3.4075,-3.4072,-3.4076,-3.4082,-3.409,-3.4084,-3.3995,-3.4069,-3.4068,-3.4067,-3.4067,-3.4067,-3.4225,-3.4233,-3.422,-3.422,-3.4213,-3.4208,-3.4213,-3.4198,-3.4198,-3.4193,-3.4178,-3.4182,-3.417,-3.416,-3.4153,-3.4155,-3.4141,-3.4148,-3.4149,-3.4151,-3.4154,-3.4092,-3.4155,-3.4154,-3.4154,-3.4154,-3.4154,0,-3.4289,-3.428,-3.428,-3.4272,-3.4273,-3.4253,-3.4245,-3.4246,-3.425,-3.4242,-3.424,-3.4241,-3.4241,-3.4223,-3.4221,-3.4226,-3.4215,-3.4226,-3.4224,-3.4222,-3.4168,-3.4164,-3.4235,-3.4235,-3.4235,-3.4235,-3.4235,-3.4235,-3.4322,-3.4333,-3.4321,-3.433,-3.432,-3.4323,-3.4321,-3.4316,-3.4309,-3.4313,-3.4312,-3.4301,-3.4289,-3.4286,-3.4285,-3.428,-3.428,-3.4294,-3.4285,-3.4234,-3.4226,-3.4219,-3.4214,-3.4295,-3.4295,-3.4339,-3.4339,-3.4339]},{"header":{"parameterUnit":"m.s-1","parameterCategory":1,"la1":30.2991,"la2":30.254,"lo1":-89.0895,"lo2":-89.0444,"dy":0.0017,"dx":0.0017,"nx":28,"ny":28,"refTime":"2024-04-15T21:00:00:Z","depth":0,"parameterNumber":3,"parameterNumberName":"V-component_of_WINDS"},"data":[0,0,0,0,0,0,0,0,0,0,0,0,0,0,0,0,0,0,0,0,0,0,0,0,0,0,0,0,0,0,0,0,0,0,0,0,0,0,0,0,0,0,0,0,0,0,0,0,0,0,0,0,0,0,0,0,0,0,3.9414,3.9414,0,3.9366,3.9366,3.9365,3.9345,3.9345,3.9345,3.9345,3.9291,3.9289,3.9288,0,0,0,0,0,0,0,0,0,0,0,0,0,3.9484,3.9483,3.9414,3.9413,3.9413,3.9366,3.9366,3.9365,3.9345,3.9345,3.9345,3.9345,3.9291,3.9289,3.9288,0,0,0,0,0,0,0,0,0,0,0,0,0,3.9446,3.9482,3.9414,3.9397,3.9395,3.9366,3.9366,3.9365,3.9345,3.9345,3.9345,3.9345,3.9292,3.929,3.9287,3.927,0,0,3.928,3.9279,0,0,0,0,0,0,0,0,3.9448,3.9444,3.94,3.9398,3.9396,3.9362,3.937,3.9333,3.9345,3.9364,3.9345,3.9345,3.9314,3.931,3.93,3.9268,3.9265,3.928,3.9279,3.9278,3.9277,0,0,0,0,0,0,0,3.9451,3.9446,3.9395,3.94,3.9397,3.9391,3.9386,3.9363,3.9338,3.9362,3.936,3.9355,3.9313,3.9303,3.9299,3.9264,3.928,3.9278,3.9277,3.9276,3.9216,3.9215,0,0,0,0,0,0,3.9457,3.9448,3.9396,3.9394,3.9423,3.9389,3.9384,3.9372,3.9339,3.9334,3.9355,3.9355,3.9306,3.9302,3.9297,3.9275,3.9278,3.9275,3.9274,3.9216,3.9216,3.9215,0,0,0,0,0,0,3.9459,3.9453,3.9398,3.942,3.9413,3.9388,3.9376,3.9371,3.9361,3.9334,3.9329,3.935,3.9306,3.93,3.9277,3.9273,3.9274,3.9272,3.9216,3.9216,3.9215,3.9231,0,0,0,0,0,0,3.9461,3.9453,3.9448,3.942,3.9412,3.9381,3.9375,3.937,3.9358,3.9357,3.9327,3.9322,3.9306,3.9281,3.9275,3.927,3.9271,3.9216,3.9216,3.9216,3.9231,3.9231,3.9231,0,0,0,0,0,3.9463,3.9452,3.9447,3.9441,3.9404,3.9381,3.9376,3.9359,3.9358,3.9351,3.9333,3.9323,3.9274,3.9279,3.9272,3.9266,3.9217,3.9216,3.9216,3.923,3.9231,3.9231,0,0,0,0,0,0,3.9477,3.9449,3.9443,3.9423,3.9405,3.9378,3.9369,3.936,3.934,3.934,3.9318,3.9311,3.929,3.9276,3.9281,3.9248,3.9245,3.9243,3.9258,3.9258,3.9259,3.9263,3.9269,0,0,0,0,0,3.9479,3.9464,3.9438,3.9423,3.9415,3.9394,3.9383,3.9371,3.9351,3.9343,3.9323,3.9302,3.9282,3.9269,3.9249,3.9228,3.9221,3.9221,3.9221,3.9222,3.922,3.9208,3.9208,3.9214,3.9214,3.9214,0,0,3.948,3.9463,3.9454,3.9426,3.9411,3.9394,3.9387,3.937,3.9357,3.9339,3.9317,3.9303,3.9278,3.9256,3.9246,3.9243,3.9217,3.9221,3.9222,3.922,3.9208,3.9207,3.9207,3.9213,3.9213,3.9214,0,0,3.9475,3.946,3.9447,3.9432,3.941,3.9396,3.9393,3.9367,3.9357,3.9335,3.9322,3.9305,3.9271,3.9255,3.9242,3.9232,3.9221,3.9226,3.9227,3.9216,3.9216,3.9215,3.9212,3.9211,3.9224,3.9224,3.9224,0,3.9479,3.9456,3.944,3.9425,3.9412,3.9398,3.9383,3.9369,3.9341,3.9332,3.933,3.9288,3.927,3.9245,3.9243,3.9233,3.9227,3.9229,3.9217,3.9217,3.9216,3.9212,3.9211,3.9225,3.9225,3.9225,3.9225,0,3.9462,3.9446,3.9438,3.9413,3.94,3.9385,3.9366,3.9354,3.9344,3.933,3.9308,3.9286,3.9262,3.9255,3.9244,3.9228,3.9228,3.9222,3.9218,3.9216,3.9212,3.9211,3.9226,3.9226,3.9225,3.9225,0,0,3.9464,3.9432,3.9429,3.9418,3.9393,3.9379,3.9363,3.9342,3.9332,3.9313,3.9299,3.9271,3.9266,3.9251,3.9239,3.9229,3.9222,3.9224,3.9223,3.9225,3.9203,3.9208,3.9206,3.9216,3.9215,3.9215,3.9205,0,3.9455,3.9428,3.9414,3.9392,3.9377,3.9363,3.9349,3.9332,3.9318,3.9302,3.9286,3.9267,3.9262,3.9253,3.9243,3.9225,3.9218,3.9226,3.9201,3.92,3.9208,3.9204,3.9209,3.92,3.9204,3.9203,3.9203,0,3.9441,3.9425,3.9402,3.938,3.9373,3.9361,3.934,3.9326,3.9305,3.9296,3.9281,3.9268,3.925,3.9248,3.9222,3.9228,3.9217,3.9207,3.9206,3.9203,3.9201,3.9201,3.9197,3.9196,3.9201,3.9201,3.9201,0,3.9445,3.9417,3.94,3.9391,3.9364,3.9356,3.9344,3.9324,3.9312,3.9294,3.9286,3.9265,3.9253,3.9236,3.9218,3.9219,3.9194,3.9191,3.9185,3.9185,3.918,3.918,3.9174,3.9173,3.9173,3.9173,3.9173,0,3.9437,3.9423,3.9402,3.9391,3.9376,3.9359,3.9344,3.9331,3.9313,3.9299,3.9285,3.9272,3.9249,3.9232,3.9218,3.9199,3.9193,3.9185,3.9181,3.9186,3.9187,3.9178,3.9178,3.9173,3.9173,3.9173,3.9173,0,3.9438,3.9423,3.9404,3.9381,3.9375,3.9364,3.9344,3.9333,3.9319,3.9302,3.9296,3.9274,3.9254,3.9235,3.9207,3.9198,3.9178,3.9174,3.9186,3.9184,3.9179,3.918,3.9167,3.9165,3.9165,3.9165,3.9165,0,3.9434,3.9424,3.9401,3.9391,3.938,3.9365,3.9354,3.9337,3.9325,3.9302,3.9293,3.9273,3.9255,3.9224,3.9204,3.9183,3.9177,3.9174,3.9174,3.918,3.9177,3.9178,3.9177,3.9175,3.9175,3.9175,3.9175,0,3.9428,3.9422,3.9407,3.9389,3.9377,3.9361,3.9346,3.9338,3.9318,3.9306,3.9286,3.9273,3.9246,3.9226,3.9203,3.9189,3.9178,3.9176,3.9173,3.9178,3.9186,3.9181,3.9187,3.9176,3.9176,3.9175,3.9175,3.9175,3.9426,3.9417,3.94,3.9384,3.9371,3.9357,3.9345,3.9331,3.9315,3.9294,3.9284,3.9265,3.9244,3.9213,3.9199,3.9182,3.918,3.9176,3.9175,3.9175,3.9176,3.9189,3.9178,3.9178,3.9178,3.9178,3.9178,0,3.942,3.9409,3.9394,3.9374,3.9361,3.9355,3.9337,3.9326,3.931,3.9293,3.9277,3.9255,3.9235,3.9215,3.9193,3.9184,3.9179,3.9179,3.9179,3.9176,3.9179,3.9184,3.9184,3.9184,3.9184,3.9184,3.9184,3.9184,3.9415,3.94,3.9391,3.9368,3.9356,3.9339,3.9329,3.9316,3.9303,3.9279,3.9263,3.9251,3.9232,3.921,3.9191,3.9186,3.9178,3.918,3.9173,3.9176,3.9176,3.9175,3.9179,3.9179,3.9179,3.9171,3.9171,3.9171]}]]